Find Starlink 6099

NORAD ID: 57108 Int'l Des: 2023-090 Owner: SPXS Country: US Constellation: starlink operational
LEOCIRCULAR

現在のビュー

3D地球を読み込み中...

About Starlink 6099

Starlink 6099 (NORAD 57108) is a starlink constellation satellite (v1.5) launched Jun 23, 2023 by SPXS of US. It operates in LEO, CIRCULAR orbit with a mass of 305.00 kg.

Starlink 6099について

説明を読み込み中...

次回通過

Passes for default location (London). Set your location on the main map for personalized predictions.

高度履歴

Loading altitude history...

軌道要素

1 57108U 23090H 26165.07717148 -.00000012 00000-0 91031-5 0 9993
2 57108 43.0130 97.2115 0002025 283.1118 76.9507 15.27576966165079
Epoch: Jun 14, 2026 • Age: 35 hours

現在のステータス

高度 482.4 km
速度 7.63 km/s
衛星直下点 18.71°N, 18.95°E
打ち上げ日 Jun 23, 2023
運用期間 2.9 years
タイプ internet

技術仕様

分類 Payload
質量 305.00 kg
乾燥質量 290.00 kg
総質量 305.00 kg
長さ 0.20 m
直径 2.80 m
スパン 9.00 m
形状 Box + pan
製造者 SPXS
バスタイプ Starlink
フェーズステータス In Orbit
所有者/国 SPXS/US

Most Searched